| time (UTC) | temp F | wind direction | speed MPH | gust MPH | rain 1hr in | rain 24hr in | rain mn in | humidity % | barometer mb |
| 20260507192005 | 62 | 281 | 0.0 | 0.0 | 0.00 | 0.00 | 0.01 | 72 | 1013.0 |
| 20260507191005 | 62 | 281 | 0.0 | 0.0 | 0.00 | 0.00 | 0.01 | 71 | 1012.9 |
| 20260507190006 | 63 | 281 | 0.0 | 0.0 | 0.00 | 0.00 | 0.01 | 69 | 1012.7 |
| 20260507185006 | 64 | 305 | 0.0 | 0.0 | 0.00 | 0.00 | 0.01 | 67 | 1012.7 |
| 20260507184006 | 64 | 318 | 0.0 | 6.0 | 0.00 | 0.00 | 0.01 | 66 | 1012.5 |
| 20260507183005 | 65 | 321 | 2.0 | 6.0 | 0.00 | 0.00 | 0.01 | 63 | 1012.5 |
| 20260507182006 | 66 | 312 | 0.0 | 0.0 | 0.00 | 0.00 | 0.01 | 63 | 1012.5 |
| 20260507181005 | 67 | 328 | 0.0 | 0.0 | 0.00 | 0.00 | 0.01 | 61 | 1012.3 |
| 20260507180005 | 68 | 291 | 1.0 | 7.0 | 0.00 | 0.00 | 0.01 | 60 | 1012.5 |
| 20260507175005 | 68 | 333 | 8.0 | 8.0 | 0.00 | 0.00 | 0.01 | 60 | 1012.3 |
| 20260507174005 | 69 | 325 | 4.0 | 6.0 | 0.00 | 0.00 | 0.01 | 57 | 1012.4 |
| 20260507173006 | 70 | 294 | 0.0 | 6.0 | 0.00 | 0.00 | 0.01 | 57 | 1012.3 |
| 20260507172006 | 70 | 278 | 3.0 | 7.0 | 0.00 | 0.00 | 0.01 | 56 | 1012.2 |
| 20260507171005 | 70 | 283 | 0.0 | 0.0 | 0.00 | 0.00 | 0.01 | 53 | 1012.1 |
| 20260507170005 | 70 | 281 | 0.0 | 6.0 | 0.00 | 0.00 | 0.01 | 52 | 1012.0 |
| 20260507165006 | 71 | 250 | 5.0 | 9.0 | 0.00 | 0.00 | 0.01 | 52 | 1012.1 |
| 20260507164005 | 71 | 288 | 5.0 | 9.0 | 0.00 | 0.00 | 0.01 | 48 | 1012.1 |
| 20260507163005 | 71 | 293 | 4.0 | 9.0 | 0.00 | 0.00 | 0.01 | 48 | 1012.1 |
| 20260507162006 | 72 | 295 | 8.0 | 8.0 | 0.00 | 0.00 | 0.01 | 46 | 1012.2 |
| 20260507161005 | 72 | 259 | 4.0 | 6.0 | 0.00 | 0.00 | 0.01 | 48 | 1012.2 |
| 20260507160005 | 72 | 267 | 0.0 | 6.0 | 0.00 | 0.00 | 0.01 | 47 | 1012.2 |
| 20260507155005 | 72 | 297 | 5.0 | 9.0 | 0.00 | 0.00 | 0.01 | 47 | 1012.1 |
| 20260507154006 | 72 | 308 | 2.0 | 9.0 | 0.00 | 0.00 | 0.01 | 49 | 1012.0 |
| 20260507153005 | 72 | 288 | 6.0 | 9.0 | 0.00 | 0.00 | 0.01 | 48 | 1012.1 |
| 20260507152005 | 72 | 288 | 4.0 | 9.0 | 0.00 | 0.00 | 0.01 | 48 | 1012.1 |
| 20260507151005 | 72 | 280 | 1.0 | 10.0 | 0.00 | 0.00 | 0.01 | 45 | 1012.2 |
| 20260507150006 | 72 | 239 | 0.0 | 10.0 | 0.00 | 0.00 | 0.01 | 47 | 1012.2 |
| 20260507145005 | 72 | 277 | 7.0 | 11.0 | 0.00 | 0.00 | 0.01 | 48 | 1012.3 |
| 20260507144005 | 72 | 264 | 6.0 | 10.0 | 0.00 | 0.00 | 0.01 | 47 | 1012.4 |
| 20260507143006 | 72 | 297 | 10.0 | 12.0 | 0.00 | 0.00 | 0.01 | 46 | 1012.4 |
| 20260507142005 | 72 | 304 | 5.0 | 14.0 | 0.00 | 0.00 | 0.01 | 48 | 1012.5 |
| 20260507141007 | 72 | 255 | 0.0 | 11.0 | 0.00 | 0.00 | 0.01 | 46 | 1012.7 |
| 20260507140006 | 73 | 276 | 4.0 | 10.0 | 0.00 | 0.00 | 0.01 | 44 | 1012.7 |
| 20260507135005 | 72 | 255 | 6.0 | 14.0 | 0.00 | 0.00 | 0.01 | 50 | 1012.8 |
| 20260507134006 | 72 | 301 | 6.0 | 13.0 | 0.00 | 0.00 | 0.01 | 47 | 1012.8 |
| 20260507133005 | 73 | 245 | 4.0 | 9.0 | 0.00 | 0.00 | 0.01 | 47 | 1012.9 |
| 20260507132006 | 73 | 239 | 10.0 | 11.0 | 0.00 | 0.00 | 0.01 | 49 | 1012.9 |
| 20260507131005 | 72 | 278 | 2.0 | 11.0 | 0.00 | 0.00 | 0.01 | 44 | 1013.0 |
| 20260507130005 | 72 | 143 | 2.0 | 13.0 | 0.00 | 0.00 | 0.01 | 46 | 1013.0 |
| 20260507125005 | 72 | 264 | 4.0 | 14.0 | 0.00 | 0.00 | 0.01 | 49 | 1013.0 |
| 20260507124006 | 72 | 276 | 2.0 | 9.0 | 0.00 | 0.00 | 0.01 | 50 | 1012.9 |
| 20260507123005 | 71 | 126 | 0.0 | 11.0 | 0.00 | 0.00 | 0.01 | 52 | 1012.9 |
| 20260507122006 | 71 | 257 | 0.0 | 6.0 | 0.00 | 0.00 | 0.01 | 56 | 1012.9 |
| 20260507121006 | 72 | 249 | 6.0 | 8.0 | 0.00 | 0.00 | 0.01 | 57 | 1013.1 |
| 20260507120006 | 71 | 286 | 2.0 | 10.0 | 0.00 | 0.00 | 0.01 | 56 | 1013.1 |
| 20260507115006 | 71 | 263 | 0.0 | 6.0 | 0.00 | 0.00 | 0.01 | 59 | 1013.2 |
| 20260507114005 | 71 | 264 | 0.0 | 10.0 | 0.00 | 0.00 | 0.01 | 58 | 1013.2 |
| 20260507113006 | 72 | 259 | 5.0 | 7.0 | 0.00 | 0.00 | 0.01 | 55 | 1013.3 |
| 20260507112006 | 72 | 23 | 0.0 | 4.0 | 0.00 | 0.00 | 0.01 | 58 | 1013.4 |
| 20260507111005 | 71 | 245 | 0.0 | 8.0 | 0.00 | 0.00 | 0.01 | 57 | 1013.5 |
| 20260507110006 | 71 | 262 | 4.0 | 8.0 | 0.00 | 0.00 | 0.01 | 60 | 1013.6 |
| 20260507105005 | 69 | 226 | 5.0 | 9.0 | 0.00 | 0.00 | 0.01 | 62 | 1013.6 |
| 20260507104005 | 69 | 300 | 5.0 | 8.0 | 0.00 | 0.00 | 0.01 | 60 | 1013.6 |
| 20260507103005 | 69 | 252 | 4.0 | 6.0 | 0.00 | 0.00 | 0.01 | 63 | 1013.9 |
| 20260507102007 | 69 | 231 | 3.0 | 7.0 | 0.00 | 0.00 | 0.01 | 61 | 1014.1 |
| 20260507101005 | 69 | 252 | 6.0 | 9.0 | 0.00 | 0.00 | 0.01 | 65 | 1014.1 |
| 20260507100006 | 68 | 203 | 3.0 | 6.0 | 0.00 | 0.00 | 0.01 | 66 | 1014.1 |
| 20260507095007 | 68 | 256 | 1.0 | 7.0 | 0.00 | 0.00 | 0.01 | 66 | 1014.1 |
| 20260507094006 | 66 | 263 | 0.0 | 6.0 | 0.00 | 0.00 | 0.01 | 68 | 1014.1 |
| 20260507093006 | 67 | 266 | 0.0 | 8.0 | 0.00 | 0.00 | 0.01 | 70 | 1014.1 |
| 20260507092006 | 68 | 245 | 0.0 | 3.0 | 0.00 | 0.00 | 0.01 | 70 | 1014.0 |
| 20260507091006 | 66 | 242 | 0.0 | 3.0 | 0.00 | 0.00 | 0.01 | 71 | 1014.1 |
| 20260507090006 | 66 | 35 | 0.0 | 1.0 | 0.00 | 0.00 | 0.01 | 73 | 1014.1 |
| 20260507085006 | 65 | 296 | 0.0 | 3.0 | 0.00 | 0.00 | 0.01 | 76 | 1014.3 |
| 20260507084006 | 64 | 318 | 0.0 | 4.0 | 0.00 | 0.00 | 0.01 | 77 | 1014.4 |
| 20260507083006 | 64 | 277 | 2.0 | 4.0 | 0.00 | 0.00 | 0.01 | 77 | 1014.3 |
| 20260507082006 | 64 | 55 | 0.0 | 2.0 | 0.00 | 0.00 | 0.01 | 80 | 1014.2 |
| 20260507081006 | 63 | 249 | 0.0 | 1.0 | 0.00 | 0.00 | 0.01 | 82 | 1014.2 |
| 20260507080006 | 62 | 248 | 1.0 | 3.0 | 0.00 | 0.00 | 0.01 | 81 | 1014.2 |
| 20260507075006 | 62 | 70 | 4.0 | 5.0 | 0.00 | 0.00 | 0.01 | 82 | 1014.2 |
| 20260507074007 | 61 | 79 | 0.0 | 0.0 | 0.00 | 0.00 | 0.01 | 85 | 1014.2 |
| 20260507073006 | 60 | 49 | 2.0 | 4.0 | 0.00 | 0.00 | 0.01 | 85 | 1014.1 |
| 20260507072007 | 60 | 117 | 4.0 | 4.0 | 0.00 | 0.00 | 0.01 | 88 | 1014.1 |
| 20260507071006 | 59 | 150 | 2.0 | 4.0 | 0.00 | 0.00 | 0.01 | 91 | 1014.1 |
| 20260507070010 | 58 | 164 | 2.0 | 4.0 | 0.00 | 0.00 | 0.01 | 93 | 1014.0 |
| 20260507065006 | 58 | 105 | 4.0 | 5.0 | 0.00 | 0.00 | 0.01 | 93 | 1014.0 |
| 20260507064006 | 58 | 155 | 0.0 | 4.0 | 0.00 | 0.00 | 0.01 | 94 | 1013.9 |
| 20260507063006 | 57 | 148 | 3.0 | 4.0 | 0.00 | 0.00 | 0.01 | 94 | 1013.8 |
| 20260507062006 | 57 | 155 | 0.0 | 0.0 | 0.00 | 0.00 | 0.01 | 94 | 1013.8 |
| 20260507061006 | 57 | 129 | 0.0 | 0.0 | 0.00 | 0.00 | 0.01 | 94 | 1013.8 |
| 20260507060006 | 56 | 128 | 0.0 | 3.0 | 0.00 | 0.00 | 0.01 | 94 | 1013.7 |
| 20260507055006 | 54 | 109 | 0.0 | 1.0 | 0.00 | 0.00 | 0.01 | 94 | 1013.5 |
| 20260507054006 | 53 | 107 | 0.0 | 2.0 | 0.00 | 0.00 | 0.01 | 94 | 1013.5 |
| 20260507053006 | 53 | 28 | 0.0 | 2.0 | 0.00 | 0.00 | 0.01 | 94 | 1013.4 |
| 20260507052006 | 53 | 29 | 1.0 | 2.0 | 0.00 | 0.00 | 0.01 | 94 | 1013.3 |
| 20260507051006 | 53 | 29 | 0.0 | 0.0 | 0.00 | 0.00 | 0.01 | 94 | 1013.4 |
| 20260507050006 | 52 | 349 | 0.0 | 0.0 | 0.00 | 0.00 | 0.01 | 93 | 1013.3 |
| 20260507045006 | 52 | 349 | 0.0 | 0.0 | 0.00 | 0.00 | 0.01 | 93 | 1013.1 |
| 20260507044006 | 52 | 349 | 0.0 | 0.0 | 0.00 | 0.00 | 0.01 | 93 | 1013.1 |
| 20260507043007 | 52 | 349 | 0.0 | 0.0 | 0.00 | 0.00 | 0.01 | 93 | 1013.0 |
| 20260507042006 | 52 | 349 | 0.0 | 0.0 | 0.00 | 0.00 | 0.01 | 93 | 1012.9 |
| 20260507041006 | 52 | 349 | 0.0 | 0.0 | 0.00 | 0.00 | 0.01 | 93 | 1012.9 |
| 20260507040006 | 52 | 349 | 0.0 | 0.0 | 0.00 | 0.00 | 0.01 | 93 | 1012.9 |
| 20260507035006 | 52 | 349 | 0.0 | 0.0 | 0.00 | 0.00 | 0.01 | 93 | 1012.8 |
| 20260507034007 | 52 | 349 | 0.0 | 2.0 | 0.00 | 0.00 | 0.01 | 94 | 1012.8 |
| 20260507033006 | 52 | 349 | 0.0 | 2.0 | 0.00 | 0.00 | 0.01 | 94 | 1012.8 |
| 20260507032006 | 52 | 349 | 0.0 | 0.0 | 0.00 | 0.00 | 0.01 | 94 | 1012.8 |
| 20260507031006 | 52 | 350 | 0.0 | 0.0 | 0.00 | 0.00 | 0.01 | 94 | 1012.7 |
| 20260507030006 | 52 | 349 | 0.0 | 0.0 | 0.00 | 0.00 | 0.01 | 94 | 1012.7 |
| 20260507025006 | 52 | 349 | 0.0 | 0.0 | 0.00 | 0.00 | 0.01 | 94 | 1012.8 |
| 20260507024007 | 53 | 349 | 0.0 | 0.0 | 0.00 | 0.00 | 0.00 | 94 | 1012.8 |
| 20260507023006 | 53 | 349 | 0.0 | 0.0 | 0.00 | 0.00 | 0.00 | 94 | 1012.8 |
| 20260507022007 | 53 | 350 | 0.0 | 0.0 | 0.00 | 0.00 | 0.00 | 94 | 1012.8 |
| 20260507021006 | 53 | 349 | 0.0 | 0.0 | 0.00 | 0.00 | 0.00 | 94 | 1012.8 |
| 20260507020006 | 54 | 349 | 0.0 | 0.0 | 0.00 | 0.00 | 0.00 | 93 | 1012.8 |
| 20260507015006 | 54 | 349 | 0.0 | 0.0 | 0.00 | 0.00 | 0.00 | 93 | 1012.8 |
| 20260507014006 | 54 | 349 | 0.0 | 0.0 | 0.00 | 0.00 | 0.00 | 93 | 1012.7 |
| 20260507013006 | 54 | 349 | 0.0 | 0.0 | 0.00 | 0.00 | 0.00 | 93 | 1012.7 |
| 20260507012006 | 54 | 349 | 0.0 | 3.0 | 0.00 | 0.00 | 0.00 | 93 | 1012.7 |
| 20260507011006 | 54 | 80 | 0.0 | 0.0 | 0.00 | 0.00 | 0.00 | 93 | 1012.6 |
| 20260507010006 | 55 | 80 | 0.0 | 0.0 | 0.00 | 0.00 | 0.00 | 93 | 1012.7 |
| 20260507005007 | 55 | 80 | 0.0 | 2.0 | 0.00 | 0.00 | 0.00 | 93 | 1012.8 |
| 20260507004006 | 55 | 79 | 2.0 | 2.0 | 0.00 | 0.00 | 0.00 | 93 | 1012.8 |
| 20260507003006 | 55 | 79 | 2.0 | 2.0 | 0.00 | 0.00 | 0.00 | 93 | 1012.7 |
| 20260507002006 | 55 | 84 | 1.0 | 2.0 | 0.00 | 0.00 | 0.00 | 93 | 1012.7 |
| 20260507001006 | 56 | 102 | 1.0 | 3.0 | 0.00 | 0.00 | 0.00 | 93 | 1012.6 |
| 20260507000006 | 56 | 103 | 0.0 | 0.0 | 0.00 | 0.00 | 0.00 | 93 | 1012.7 |
| 20260506235006 | 56 | 101 | 0.0 | 2.0 | 0.00 | 0.00 | 0.00 | 93 | 1012.7 |
| 20260506234006 | 56 | 114 | 1.0 | 2.0 | 0.00 | 0.00 | 0.00 | 93 | 1012.7 |
| 20260506233006 | 56 | 103 | 0.0 | 1.0 | 0.00 | 0.00 | 0.00 | 92 | 1012.6 |
| 20260506232006 | 56 | 138 | 2.0 | 4.0 | 0.00 | 0.00 | 0.00 | 92 | 1012.8 |
| 20260506231006 | 56 | 135 | 3.0 | 7.0 | 0.00 | 0.00 | 0.00 | 92 | 1013.0 |
| 20260506230007 | 56 | 120 | 1.0 | 4.0 | 0.00 | 0.00 | 0.00 | 92 | 1012.7 |
| 20260506225007 | 56 | 26 | 0.0 | 2.0 | 0.00 | 0.00 | 0.00 | 91 | 1012.6 |
| 20260506224006 | 56 | 96 | 2.0 | 3.0 | 0.00 | 0.00 | 0.00 | 91 | 1012.7 |
| 20260506223006 | 56 | 164 | 1.0 | 9.0 | 0.00 | 0.00 | 0.00 | 91 | 1012.9 |
| 20260506222006 | 56 | 176 | 3.0 | 5.0 | 0.00 | 0.00 | 0.00 | 90 | 1012.8 |
| 20260506221006 | 56 | 169 | 1.0 | 3.0 | 0.00 | 0.00 | 0.00 | 90 | 1012.5 |
| 20260506220006 | 57 | 215 | 3.0 | 5.0 | 0.00 | 0.00 | 0.00 | 89 | 1012.6 |
| 20260506215007 | 57 | 187 | 2.0 | 6.0 | 0.00 | 0.00 | 1.53 | 88 | 1012.5 |
| 20260506214007 | 57 | 171 | 5.0 | 8.0 | 0.00 | 0.00 | 1.53 | 88 | 1012.5 |
| 20260506213007 | 58 | 187 | 8.0 | 10.0 | 0.00 | 0.00 | 1.53 | 87 | 1012.7 |
| 20260506212006 | 58 | 208 | 2.0 | 5.0 | 0.00 | 0.00 | 1.53 | 87 | 1012.5 |
| 20260506211007 | 59 | 166 | 2.0 | 7.0 | 0.00 | 0.00 | 1.53 | 87 | 1012.5 |
| 20260506210006 | 59 | 191 | 2.0 | 5.0 | 0.00 | 0.00 | 1.53 | 87 | 1012.4 |
| 20260506205006 | 59 | 218 | 0.0 | 2.0 | 0.00 | 0.00 | 1.53 | 86 | 1012.3 |
| 20260506204006 | 59 | 156 | 2.0 | 4.0 | 0.00 | 0.00 | 1.53 | 86 | 1012.3 |
| 20260506203006 | 59 | 162 | 4.0 | 7.0 | 0.00 | 0.00 | 1.53 | 86 | 1012.2 |
| 20260506202007 | 60 | 145 | 3.0 | 7.0 | 0.00 | 0.00 | 1.53 | 87 | 1012.1 |
| 20260506201006 | 60 | 180 | 5.0 | 7.0 | 0.00 | 0.00 | 1.53 | 86 | 1012.1 |
| 20260506200007 | 61 | 179 | 5.0 | 8.0 | 0.00 | 0.00 | 1.53 | 84 | 1011.8 |
| 20260506195007 | 62 | 148 | 0.0 | 0.0 | 0.00 | 0.00 | 1.53 | 83 | 1011.6 |
| 20260506194006 | 62 | 166 | 0.0 | 0.0 | 0.00 | 0.00 | 1.53 | 84 | 1011.4 |
| 20260506193007 | 62 | 178 | 0.0 | 0.0 | 0.00 | 0.00 | 1.53 | 85 | 1011.3 |